Location: *
(46.1833°N, 22.7667°E)
Time: 04:47:06
(UTC+00:00)

Cosmos 2219 - Pass Details

Date: 17 September 2019
Orbit: 834 x 860 km, 71.1° (Epoch: 15 October)

Event Time Altitude Azimuth Distance (km) Brightness Sun altitude
Rises 19:15:43 0° 223° (SW) 3,423 6.5 -26.5°
Reaches altitude 10° 19:18:16 10° 229° (SW) 2,491 5.8 -26.8°
Maximum altitude 19:23:47 48° 303° (WNW) 1,114 4.1 -27.6°
Drops below altitude 10° 19:29:21 10° 17° (NNE) 2,502 5.9 -28.3°
Sets 19:31:55 0° 24° (NNE) 3,440 6.6 -28.7°
